Tracking 20369 objects as of 16-Feb-2020
HD Live streaming from Space Station
objects crossing your sky now

SL-3 DEB

Track SL-3 DEB now!
10-day predictions


NORAD ID: 13720
Int'l Code: 1982-116C
Perigee: 806.8 km
Apogee: 888.6 km
Inclination: 81.2 °
Period: 101.7 minutes
Semi major axis: 7218 km
RCS: 0.0137 m2 (small)
Launch date: December 14, 1982
Source: Commonwealth of Independent States (former USSR) (CIS)
Launch site: PLESETSK MISSILE AND SPACE COMPLEX (PKMTR)

Note: This is SATELLITE DEBRIS
aabbcc
Your satellite tracking list
Your tracking list is empty




NASA's NSSDC Master Catalog

Two Line Element Set (TLE):
1 13720U 82116C   20047.58671076 -.00000042 +00000-0 -27935-4 0  9992
2 13720 081.2474 096.5528 0056723 084.0708 067.2691 14.15514937919220
Source of the keplerian elements: AFSPC